EW6810 Weather Reports


Display with metric or nautical units.
time (UTC)temp
F
wind
direction
speed
MPH
gust
MPH
rain 1hr
in
rain 24hr
in
rain mn
in
humidity
%
barometer
mb
20260505183110 63 160 1.0 6.0 0.00 0.00 0.00 72 1011.4
20260505182544 63 64 2.0 6.0 0.00 0.00 0.00 72 1011.3
20260505182043 62 152 1.0 5.0 0.00 0.00 0.00 73 1011.3
20260505181542 61 37 2.0 6.0 0.00 0.00 0.00 74 1011.3
20260505181040 61 190 2.0 5.0 0.00 0.00 0.00 74 1011.3
20260505180640 61 77 1.0 5.0 0.00 0.00 0.00 75 1011.3
20260505180021 61 111 2.0 9.0 0.00 0.00 0.00 75 1011.3
20260505175519 60 174 2.0 5.0 0.00 0.00 0.00 75 1011.3
20260505175021 61 153 1.0 7.0 0.00 0.00 0.00 75 1011.4
20260505174516 61 39 2.0 7.0 0.00 0.00 0.00 75 1011.3
20260505174016 60 65 1.0 6.0 0.00 0.00 0.00 75 1011.3
20260505173514 61 157 1.0 4.0 0.00 0.00 0.00 75 1011.3
20260505173011 61 136 0.0 6.0 0.00 0.00 0.00 75 1011.2
20260505172511 60 215 1.0 6.0 0.00 0.00 0.00 75 1011.2
20260505172008 60 45 1.0 8.0 0.00 0.00 0.00 75 1011.2
20260505171507 60 54 1.0 8.0 0.00 0.00 0.00 75 1011.2
20260505171006 59 83 1.0 5.0 0.00 0.00 0.00 76 1011.3
20260505170506 59 191 1.0 5.0 0.00 0.00 0.00 76 1011.3
20260505170009 60 134 2.0 5.0 0.00 0.00 0.00 75 1011.2
20260505165504 59 186 2.0 6.0 0.00 0.00 0.00 75 1011.3
20260505165002 59 161 2.0 5.0 0.00 0.00 0.00 75 1011.2
20260505164601 60 130 1.0 3.0 0.00 0.00 0.00 75 1011.1
20260505164102 59 144 0.0 5.0 0.00 0.00 0.00 76 1011.1
20260505163558 59 121 1.0 7.0 0.00 0.00 0.00 76 1011.2
20260505163057 59 155 2.0 7.0 0.00 0.00 0.00 76 1011.1
20260505162555 59 223 1.0 3.0 0.00 0.00 0.00 76 1011.1
20260505162054 58 204 1.0 4.0 0.00 0.00 0.00 78 1011.1
20260505161614 58 150 1.0 4.0 0.00 0.00 0.00 77 1011.1
20260505161052 58 147 2.0 4.0 0.00 0.00 0.00 77 1011.1
20260505160549 58 175 1.0 4.0 0.00 0.00 0.00 78 1011.1
20260505153043 56 23 0.0 3.0 0.00 0.00 0.00 80 1010.9
20260505152540 55 23 1.0 3.0 0.00 0.00 0.00 80 1010.9
20260505152040 55 23 1.0 3.0 0.00 0.00 0.00 81 1010.9
20260505151539 54 23 1.0 3.0 0.00 0.00 0.00 81 1010.8
20260505151037 54 23 1.0 2.0 0.00 0.00 0.00 81 1010.8
20260505150638 54 23 1.0 2.0 0.00 0.00 0.00 81 1010.7
20260505140526 54 23 0.0 2.0 0.00 0.00 0.00 79 1010.2
20260505125027 54 24 1.0 2.0 0.00 0.00 0.00 79 1009.3
20260505124524 54 24 0.0 0.0 0.00 0.00 0.00 78 1009.3
20260505124023 54 24 0.0 0.0 0.00 0.00 0.00 78 1009.2
20260505123522 54 24 0.0 0.0 0.00 0.00 0.00 78 1009.1
20260505123021 54 24 0.0 0.0 0.00 0.00 0.00 78 1009.0
20260505122521 54 24 0.0 0.0 0.00 0.00 0.00 78 1009.0
20260505122021 54 24 0.0 0.0 0.00 0.00 0.00 77 1008.8
20260505121523 55 24 0.0 0.0 0.00 0.00 0.00 77 1008.9
20260505121020 55 24 0.0 0.0 0.00 0.00 0.00 77 1008.8
20260505120519 55 24 0.0 0.0 0.00 0.00 0.00 76 1008.8
20260505120048 55 24 0.0 0.0 0.00 0.00 0.00 76 1008.8
20260505115521 55 24 0.0 0.0 0.00 0.00 0.00 76 1008.8
20260505115016 55 24 0.0 0.0 0.00 0.00 0.00 76 1008.8
20260505114515 55 24 0.0 0.0 0.00 0.00 0.00 75 1008.6
20260505114016 55 24 0.0 2.0 0.00 0.00 0.00 75 1008.6
20260505113514 56 24 0.0 3.0 0.00 0.00 0.00 75 1008.7
20260505113013 56 24 1.0 3.0 0.00 0.00 0.00 74 1008.6
20260505112516 56 24 0.0 2.0 0.00 0.00 0.00 73 1008.5
20260505112013 56 24 0.0 2.0 0.00 0.00 0.00 73 1008.5
20260505111511 56 24 0.0 3.0 0.00 0.00 0.00 73 1008.4
20260505111011 56 24 2.0 3.0 0.00 0.00 0.00 72 1008.3
20260505110509 56 25 1.0 2.0 0.00 0.00 0.00 72 1008.4
20260505102003 57 25 0.0 2.0 0.00 0.00 0.00 66 1007.8
20260505101603 58 25 0.0 2.0 0.00 0.00 0.00 65 1007.8
20260505101101 58 25 0.0 1.0 0.00 0.00 0.00 65 1007.8
20260505100559 58 25 0.0 1.0 0.00 0.00 0.00 65 1007.7
20260505100058 58 25 0.0 2.0 0.00 0.00 0.00 64 1007.6
20260505095557 59 25 0.0 2.0 0.00 0.00 0.00 64 1007.5
20260505095056 59 25 0.0 2.0 0.00 0.00 0.00 63 1007.5
20260505094556 59 25 0.0 2.0 0.00 0.00 0.00 64 1007.4
20260505094055 59 25 0.0 2.0 0.00 0.00 0.00 62 1007.3
20260505093554 59 25 0.0 2.0 0.00 0.00 0.00 63 1007.3
20260505093056 59 25 0.0 2.0 0.00 0.00 0.00 63 1007.3
20260505092552 59 25 0.0 2.0 0.00 0.00 0.00 63 1007.2
20260505092051 59 25 0.0 2.0 0.00 0.00 0.00 62 1007.1
20260505091551 59 25 1.0 2.0 0.00 0.00 0.00 62 1007.2
20260505091052 59 25 1.0 2.0 0.00 0.00 0.00 63 1007.1
20260505090550 59 25 1.0 2.0 0.00 0.00 0.00 63 1007.0
20260505090051 60 25 0.0 2.0 0.00 0.00 0.00 61 1007.1
20260505085552 60 25 1.0 2.0 0.00 0.00 0.00 61 1007.1
20260505085048 60 25 0.0 2.0 0.00 0.00 0.00 61 1007.0
20260505084547 60 25 1.0 2.0 0.00 0.00 0.00 61 1007.0
20260505084047 60 25 1.0 2.0 0.00 0.00 0.00 60 1006.9
20260505083546 60 25 1.0 2.0 0.00 0.00 0.00 60 1006.9
20260505083049 60 25 1.0 2.0 0.00 0.00 0.00 62 1006.9
20260505082545 60 25 0.0 2.0 0.00 0.00 0.00 61 1006.8
20260505082044 60 25 1.0 2.0 0.00 0.00 0.00 60 1006.8
20260505081545 61 25 0.0 2.0 0.00 0.00 0.00 60 1006.8
20260505081044 61 25 1.0 2.0 0.00 0.00 0.00 60 1006.8
20260505080503 61 25 1.0 2.0 0.00 0.00 0.00 59 1006.9
20260505080100 61 25 0.0 2.0 0.00 0.00 0.00 59 1006.8
20260505075558 61 25 1.0 2.0 0.00 0.00 0.00 58 1006.8
20260505075057 61 25 1.0 2.0 0.00 0.00 0.00 58 1006.8
20260505074601 62 25 1.0 2.0 0.00 0.00 0.00 58 1006.8
20260505074056 62 25 1.0 2.0 0.00 0.00 0.00 57 1006.7
20260505073555 62 25 1.0 2.0 0.00 0.00 0.00 57 1006.6
20260505073105 62 25 1.0 2.0 0.00 0.00 0.00 57 1006.5
20260505072552 62 25 1.0 2.0 0.00 0.00 0.00 56 1006.4
20260505072051 62 25 1.0 4.0 0.00 0.00 0.00 55 1006.3
20260505071558 62 25 0.0 4.0 0.00 0.00 0.00 54 1006.3
20260505071050 62 357 2.0 4.0 0.00 0.00 0.00 55 1006.2
20260505070550 62 342 1.0 5.0 0.00 0.00 0.00 56 1006.2
20260505070049 63 331 1.0 5.0 0.00 0.00 0.00 55 1006.2
20260505065548 63 9 0.0 3.0 0.00 0.00 0.00 55 1006.1
20260505065047 63 9 1.0 5.0 0.00 0.00 0.00 54 1006.1
20260505064547 63 353 1.0 5.0 0.00 0.00 0.00 55 1006.1
20260505064047 63 21 1.0 4.0 0.00 0.00 0.00 55 1006.0
20260505063547 63 22 2.0 4.0 0.00 0.00 0.00 55 1006.0
20260505063048 63 328 0.0 2.0 0.00 0.00 0.00 55 1005.9
20260505062548 63 328 0.0 2.0 0.00 0.00 0.00 55 1005.9
20260505062047 63 328 0.0 2.0 0.00 0.00 0.00 56 1005.8
20260505061553 64 328 1.0 2.0 0.00 0.00 0.00 55 1005.8
20260505061047 64 328 0.0 3.0 0.00 0.00 0.00 54 1005.8
20260505060546 64 328 1.0 3.0 0.00 0.00 0.00 53 1005.9
20260505060046 64 46 1.0 3.0 0.00 0.00 0.00 53 1005.8
20260505055545 64 9 1.0 4.0 0.00 0.00 0.00 54 1005.8
20260505055045 64 302 1.0 3.0 0.00 0.00 0.00 52 1005.8
20260505054606 64 11 0.0 4.0 0.00 0.00 0.00 53 1005.8
20260505054047 65 17 1.0 4.0 0.00 0.00 0.00 52 1005.8
20260505053544 65 3 1.0 5.0 0.00 0.00 0.00 52 1005.8
20260505053058 65 265 1.0 5.0 0.00 0.00 0.00 52 1005.8
20260505052544 65 6 0.0 2.0 0.00 0.00 0.00 51 1005.7
20260505052045 65 9 1.0 3.0 0.00 0.00 0.00 51 1005.7
20260505051544 65 300 1.0 3.0 0.00 0.00 0.00 50 1005.6
20260505051044 66 20 1.0 3.0 0.00 0.00 0.00 51 1005.6
20260505050544 66 20 2.0 3.0 0.00 0.00 0.00 50 1005.6
20260505041545 67 39 0.0 2.0 0.00 0.00 0.00 49 1005.2
20260505041042 67 40 0.0 3.0 0.00 0.00 0.00 49 1005.2
20260505040544 67 232 1.0 3.0 0.00 0.00 0.00 49 1005.2
20260505040042 67 18 0.0 4.0 0.00 0.00 0.00 48 1005.2
20260505035541 68 21 1.0 4.0 0.00 0.00 0.00 48 1005.1
20260505035044 68 220 0.0 2.0 0.00 0.00 0.00 48 1005.0
20260505034541 68 219 0.0 2.0 0.00 0.00 0.00 49 1005.0
20260505034041 69 219 0.0 2.0 0.00 0.00 0.00 47 1004.9
20260505033541 69 219 0.0 0.0 0.00 0.00 0.00 49 1004.9
20260505033041 69 219 0.0 0.0 0.00 0.00 0.00 48 1004.8
20260505032541 69 219 0.0 2.0 0.00 0.00 0.00 49 1004.7
20260505032041 70 219 0.0 2.0 0.00 0.00 0.00 49 1004.7
20260505031551 70 219 1.0 2.0 0.00 0.00 0.00 49 1004.7
20260505031040 71 219 0.0 2.0 0.00 0.00 0.00 48 1004.7
20260505030641 71 219 0.0 2.0 0.00 0.00 0.00 47 1004.7
20260505030051 71 219 0.0 1.0 0.00 0.00 0.00 46 1004.6
20260505025550 72 219 0.0 0.0 0.00 0.00 0.00 45 1004.6
20260505025052 72 219 0.0 0.0 0.00 0.00 0.00 43 1004.6
20260505024552 73 219 0.0 0.0 0.00 0.00 0.00 44 1004.6
20260505024049 73 219 0.0 0.0 0.00 0.00 0.00 40 1004.5
20260505023552 74 219 0.0 1.0 0.00 0.00 0.00 40 1004.5
20260505023102 74 219 0.0 1.0 0.00 0.00 0.00 39 1004.5
20260505022548 74 219 0.0 2.0 0.00 0.00 0.00 39 1004.6
20260505022048 75 219 0.0 2.0 0.00 0.00 0.00 37 1004.7
20260505021548 75 219 0.0 2.0 0.00 0.00 0.00 38 1004.7
20260505021047 76 219 0.0 3.0 0.00 0.00 0.00 37 1004.7
20260505020552 76 220 1.0 3.0 0.00 0.00 0.00 35 1004.7
20260505020048 77 222 0.0 3.0 0.00 0.00 0.00 35 1004.7
20260505015547 77 186 1.0 3.0 0.00 0.00 0.00 34 1004.7
20260505015047 77 189 1.0 3.0 0.00 0.00 0.00 32 1004.7
20260505014547 78 54 0.0 3.0 0.00 0.00 0.00 33 1004.8
20260505014045 78 243 0.0 3.0 0.00 0.00 0.00 32 1004.7
20260505013546 78 165 1.0 2.0 0.00 0.00 0.00 30 1004.8
20260505013059 78 165 0.0 3.0 0.00 0.00 0.00 30 1004.8
20260505012546 78 172 1.0 3.0 0.00 0.00 0.00 28 1004.8
20260505012046 79 101 0.0 3.0 0.00 0.00 0.00 28 1004.7
20260505011545 79 92 0.0 4.0 0.00 0.00 0.00 28 1004.8
20260505011044 79 21 1.0 5.0 0.00 0.00 0.00 27 1004.9
20260505010643 80 166 2.0 5.0 0.00 0.00 0.00 28 1005.0
20260505010043 80 217 0.0 6.0 0.00 0.00 0.00 28 1004.9
20260505005542 79 133 1.0 7.0 0.00 0.00 0.00 27 1004.9
20260505005042 80 133 0.0 7.0 0.00 0.00 0.00 30 1005.0
20260505004549 81 140 1.0 7.0 0.00 0.00 0.00 30 1005.1
20260505004042 79 150 1.0 4.0 0.00 0.00 0.00 29 1005.0
20260505003542 80 173 1.0 4.0 0.00 0.00 0.00 28 1005.0
20260505003043 80 142 1.0 4.0 0.00 0.00 0.00 30 1005.0
20260505002542 81 115 1.0 4.0 0.00 0.00 0.00 27 1005.0
20260505002042 81 167 1.0 7.0 0.00 0.00 0.00 29 1004.9
20260505001541 81 234 1.0 7.0 0.00 0.00 0.00 28 1004.9
20260505001041 81 198 1.0 4.0 0.00 0.00 0.00 28 1005.0
20260505000641 81 142 2.0 4.0 0.00 0.00 0.00 26 1005.0
20260505000107 81 48 1.0 4.0 0.00 0.00 0.00 28 1005.0
20260504235550 81 161 1.0 3.0 0.00 0.00 0.00 28 1005.1
20260504235050 82 61 0.0 5.0 0.00 0.00 0.00 27 1005.1
20260504234549 82 39 1.0 5.0 0.00 0.00 0.00 27 1005.1
20260504234049 81 180 1.0 4.0 0.00 0.00 0.00 28 1005.2
20260504233547 81 190 1.0 5.0 0.00 0.00 0.00 27 1005.2
20260504233049 81 173 2.0 5.0 0.00 0.00 0.00 25 1005.3
20260504232547 81 140 1.0 5.0 0.00 0.00 0.00 28 1005.2
20260504232046 82 125 1.0 5.0 0.00 0.00 0.00 27 1005.2
20260504231547 82 122 0.0 4.0 0.00 0.00 0.00 26 1005.3
20260504231045 82 159 1.0 6.0 0.00 0.00 0.00 27 1005.4
20260504230545 82 188 2.0 6.0 0.00 0.00 0.00 24 1005.5
20260504225546 81 212 0.0 4.0 0.00 0.00 0.00 26 1005.5
20260504225044 83 126 1.0 5.0 0.00 0.00 0.00 26 1005.5
20260504224544 82 153 2.0 5.0 0.00 0.00 0.00 28 1005.6
20260504224043 82 158 2.0 6.0 0.00 0.00 0.00 25 1005.6
20260504223543 82 123 2.0 5.0 0.00 0.00 0.00 25 1005.7
20260504223044 82 16 1.0 4.0 0.00 0.00 0.00 25 1005.5
20260504222543 83 328 1.0 9.0 0.00 0.00 0.00 28 1005.5
20260504222041 82 139 2.0 9.0 0.00 0.00 0.00 26 1005.6
20260504221554 82 162 2.0 6.0 0.00 0.00 0.00 27 1005.6
20260504221042 82 28 1.0 6.0 0.00 0.00 0.00 26 1005.6
20260504220641 81 165 1.0 6.0 0.00 0.00 0.00 28 1005.7
20260504220044 82 61 3.0 7.0 0.00 0.00 0.00 26 1005.7
20260504215540 82 210 2.0 6.0 0.00 0.00 0.00 25 1005.8
20260504215038 82 156 1.0 6.0 0.00 0.00 0.00 25 1005.8
20260504214537 83 325 2.0 5.0 0.00 0.00 0.00 28 1005.8
20260504214037 82 20 0.0 6.0 0.00 0.00 0.00 29 1005.8
20260504213536 82 127 2.0 6.0 0.00 0.00 0.00 29 1005.8
20260504213043 81 17 1.0 6.0 0.00 0.00 0.00 31 1005.8
20260504212539 81 136 3.0 6.0 0.00 0.00 0.00 28 1006.0
20260504212036 82 115 1.0 4.0 0.00 0.00 0.00 31 1005.9
20260504211535 81 155 1.0 5.0 0.00 0.00 0.00 31 1006.0
20260504211035 81 155 1.0 5.0 0.00 0.00 0.00 30 1006.1
20260504210635 81 111 1.0 5.0 0.00 0.00 0.00 30 1006.2
20260504210011 81 165 1.0 5.0 0.00 0.00 0.00 33 1006.1
20260504205508 82 210 0.0 7.0 0.00 0.00 0.00 31 1006.2
20260504205007 80 228 2.0 7.0 0.00 0.00 0.00 31 1006.2
20260504204506 80 54 1.0 5.0 0.00 0.00 0.00 34 1006.3
20260504204008 80 138 1.0 5.0 0.00 0.00 0.00 33 1006.3
20260504203505 81 211 1.0 8.0 0.00 0.00 0.00 33 1006.2
20260504203007 79 97 0.0 8.0 0.00 0.00 0.00 35 1006.3
20260504202511 79 143 2.0 4.0 0.00 0.00 0.00 33 1006.3
20260504202007 80 75 1.0 4.0 0.00 0.00 0.00 35 1006.3
20260504201502 79 227 1.0 4.0 0.00 0.00 0.00 34 1006.2
20260504201001 78 76 2.0 5.0 0.00 0.00 0.00 38 1006.3
20260504200501 78 190 2.0 6.0 0.00 0.00 0.00 36 1006.4
20260504200000 78 145 1.0 6.0 0.00 0.00 0.00 36 1006.4
20260504195559 78 171 1.0 4.0 0.00 0.00 0.00 39 1006.4
20260504195101 78 57 1.0 5.0 0.00 0.00 0.00 39 1006.4
20260504194558 78 132 1.0 5.0 0.00 0.00 0.00 36 1006.5
20260504194058 76 136 1.0 6.0 0.00 0.00 0.00 39 1006.5
20260504193557 77 132 1.0 5.0 0.00 0.00 0.00 41 1006.5
20260504193058 76 19 1.0 5.0 0.00 0.00 0.00 38 1006.5
20260504192559 76 148 1.0 4.0 0.00 0.00 0.00 39 1006.5
20260504192056 77 215 2.0 5.0 0.00 0.00 0.00 36 1006.6
20260504191606 77 129 1.0 5.0 0.00 0.00 0.00 40 1006.5
20260504191056 76 125 2.0 5.0 0.00 0.00 0.00 37 1006.5
20260504190555 77 150 1.0 5.0 0.00 0.00 0.00 37 1006.6
20260504190112 77 162 1.0 5.0 0.00 0.00 0.00 38 1006.6
20260504185551 75 309 1.0 5.0 0.00 0.00 0.00 40 1006.7
20260504185051 75 159 2.0 4.0 0.00 0.00 0.00 39 1006.7
20260504184551 75 59 1.0 5.0 0.00 0.00 0.00 42 1006.7
20260504184050 75 147 2.0 5.0 0.00 0.00 0.00 41 1006.7
20260504183548 74 196 2.0 6.0 0.00 0.00 0.00 42 1006.7